Location: Newcastle Observatory
(43.9158°N, 78.5831°W)
Time: 15:15:46
(UTC-05:00)

Amateur Radio Satellites - All Passes

Search period start: 18 December 2014 14:45
Search period end: 19 December 2014 14:45
Location: Newcastle Observatory, 43.9158°N, 78.5831°W

Satellite Date Start Highest point End Downlink Frequencies (MHz)
Time Altitude Azimuth
ITAMSAT 1 18 Dec 14:45:34 14:49:43 24° 266° (W) 14:53:53 435.822/435.867
M-CUBED/EXP-1 PRIME 18 Dec 14:56:51 15:01:18 55° 293° (WNW) 15:05:20 437.505
BEESAT 2 18 Dec 15:00:31 15:04:27 42° 311° (NW) 15:08:28 435.950
ITUPSAT 1 18 Dec 15:04:26 15:08:10 23° 296° (WNW) 15:11:54 437.325
SWISSCUBE 18 Dec 15:05:09 15:08:42 21° 297° (WNW) 15:12:14 437.505
BEESAT 18 Dec 15:31:38 15:34:00 14° 301° (WNW) 15:36:21 436.000
ISS 18 Dec 15:34:55 15:38:11 62° 332° (NNW) 15:41:28 145.825
KKS-1 18 Dec 15:36:09 15:40:21 41° 290° (WNW) 15:44:32 437.445
STARS 18 Dec 15:37:39 15:42:00 57° 287° (WNW) 15:46:21 437.465
JAS-2 18 Dec 15:41:43 15:48:55 46° 68° (ENE) 15:55:33 435.910
AIST 2 18 Dec 15:54:12 15:57:57 29° 315° (NW) 16:01:44 435.215
AO-7 18 Dec 15:56:38 16:04:51 63° 256° (WSW) 16:13:10 29.400- 29.500
AIST 1 18 Dec 16:02:15 16:05:33 21° 87° (E) 16:08:52
BEESAT 3 18 Dec 16:03:19 16:05:35 14° 324° (NW) 16:07:52 437.485
HORYU 2 18 Dec 16:08:11 16:10:14 13° 270° (W) 16:12:17 437.375
AUBIESAT-1 18 Dec 16:09:34 16:11:45 14° 307° (NW) 16:13:52 437.475
CUTE-I 18 Dec 16:17:02 16:20:30 18° 59° (ENE) 16:23:57 437.470
PCSat 18 Dec 16:17:20 16:21:31 22° 318° (NW) 16:25:42 145.827
RS-15 18 Dec 16:22:22 16:31:09 26° 349° (N) 16:40:07 29.354- 29.394
MOZHAYETS 4 18 Dec 16:28:14 16:32:05 26° 94° (E) 16:35:54
GONETS M04 18 Dec 16:29:18 16:37:50 51° 74° (ENE) 16:46:14
ISS 18 Dec 17:12:33 17:15:14 23° 351° (N) 17:17:56 145.825
Cubesat XI-IV 18 Dec 17:20:46 17:26:01 61° 72° (ENE) 17:31:16 437.490
JAS-2 18 Dec 17:26:50 17:33:57 40° 264° (W) 17:40:35 435.910
AIST 1 18 Dec 17:38:58 17:43:00 35° 285° (WNW) 17:47:01
CUBESAT XI-V 18 Dec 17:46:05 17:47:58 12° 88° (E) 17:49:50 437.345
CUTE-I 18 Dec 17:54:41 18:00:00 70° 257° (WSW) 18:05:19 437.470
AO-7 18 Dec 17:57:02 17:59:17 11° 276° (W) 18:01:33 29.400- 29.500
PRISM 18 Dec 18:04:21 18:08:13 36° 98° (E) 18:12:02 437.425
MOZHAYETS 4 18 Dec 18:05:10 18:09:22 35° 291° (WNW) 18:13:31
HO-68 18 Dec 18:11:29 18:15:26 16° 49° (NE) 18:19:22 435.675
GONETS M04 18 Dec 18:26:35 18:34:21 37° 275° (W) 18:42:04
STRAND 1 18 Dec 18:36:16 18:40:54 34° 97° (E) 18:45:30 437.568
RS-15 18 Dec 18:38:36 18:48:11 32° 24° (NNE) 18:58:02 29.354- 29.394
MaSat-1 18 Dec 18:49:13 18:51:35 79° 243° (WSW) 18:54:07 437.345
ISS 18 Dec 18:49:49 18:52:34 24° 11° (NNE) 18:55:19 145.825
CUSAT 1 18 Dec 18:58:46 19:03:29 18° 62° (ENE) 19:08:36 437.405
Cubesat XI-IV 18 Dec 19:02:53 19:06:31 18° 269° (W) 19:10:09 437.490
CUBESAT XI-V 18 Dec 19:21:19 19:25:55 71° 285° (WNW) 19:30:29 437.345
GOMX 1 18 Dec 19:24:49 19:27:29 17° 64° (ENE) 19:30:10 467.674
AAUSAT CUBESAT 2 18 Dec 19:30:25 19:33:08 17° 64° (ENE) 19:35:52 437.432
CANX-2 18 Dec 19:34:42 19:38:26 30° 69° (ENE) 19:42:12 2200.000
DANDE 18 Dec 19:38:31 19:44:40 28° 68° (ENE) 19:51:37 436.750
PRISM 18 Dec 19:40:23 19:43:32 21° 295° (WNW) 19:46:39 437.425
HO-68 18 Dec 19:54:46 20:01:54 70° 70° (ENE) 20:09:03 435.675
DOVE 4 18 Dec 19:59:33 20:03:06 28° 68° (ENE) 20:06:41 437.250
COMPASS 1 18 Dec 20:02:38 20:06:35 40° 71° (ENE) 20:10:34 437.405
SEEDS 18 Dec 20:04:56 20:09:01 50° 72° (ENE) 20:13:10 437.485
CUTE 1.7 + AOD 2 18 Dec 20:05:17 20:09:28 59° 74° (ENE) 20:13:42 437.475
DX 1 18 Dec 20:08:52 20:11:57 19° 64° (ENE) 20:15:02 434.975-435.025
STRAND 1 18 Dec 20:15:34 20:20:01 31° 294° (WNW) 20:24:26 437.568
BRITE-PL 18 Dec 20:23:16 20:27:29 83° 258° (WSW) 20:31:39 437.365/2234.400
ISS 18 Dec 20:26:15 20:29:33 77° 30° (NNE) 20:32:49 145.825
DELFI C3 18 Dec 20:32:53 20:36:32 32° 69° (ENE) 20:40:13 145.870
Oscar 11 18 Dec 20:34:07 20:38:10 40° 71° (ENE) 20:42:15 145.826/435.025
CUBEBUG 2 18 Dec 20:39:06 20:42:40 28° 68° (ENE) 20:46:19 437.445
CUSAT 1 18 Dec 20:40:05 20:47:32 75° 79° (ENE) 20:56:02 437.405
CINEMA 3 18 Dec 20:40:44 20:44:42 46° 72° (ENE) 20:48:46 145.822/145.860
UKube-1 18 Dec 20:41:14 20:45:15 38° 69° (ENE) 20:49:17 .
HUMSAT D 18 Dec 20:42:23 20:44:31 14° 62° (ENE) 20:46:40 437.325/437.525
RS-15 18 Dec 20:51:28 21:02:45 75° 53° (NE) 21:14:31 29.354- 29.394
VELOX 1 18 Dec 20:54:05 20:57:14 20° 64° (ENE) 21:00:24 145.980
ZACube-1 18 Dec 20:59:03 21:02:48 33° 69° (ENE) 21:06:37 437.345
GOMX 1 18 Dec 21:01:21 21:05:19 44° 261° (W) 21:09:19 467.674
BEESAT 3 18 Dec 21:04:12 21:06:38 15° 37° (NE) 21:09:03 437.485
AAUSAT CUBESAT 2 18 Dec 21:04:22 21:08:26 48° 261° (W) 21:12:33 437.432
CANX-2 18 Dec 21:10:49 21:14:22 25° 266° (W) 21:17:58 2200.000
UWE-3 18 Dec 21:21:12 21:25:20 69° 75° (ENE) 21:29:35 435.000/436.395/437.385
DANDE 18 Dec 21:21:13 21:28:33 72° 263° (W) 21:37:07 436.750
FUNcube-1 18 Dec 21:26:01 21:30:08 65° 74° (ENE) 21:34:22 145.935
AISAT 18 Dec 21:34:39 21:38:55 49° 71° (ENE) 21:43:12 437.250
PCSat 18 Dec 21:36:25 21:39:52 17° 37° (NE) 21:43:19 145.827
DOVE 4 18 Dec 21:37:28 21:40:53 25° 266° (W) 21:44:21 437.250
COMPASS 1 18 Dec 21:39:28 21:42:28 19° 268° (W) 21:45:30 437.405
BEESAT 2 18 Dec 21:41:25 21:44:56 25° 44° (NE) 21:48:24 435.950
SO-50 18 Dec 21:41:49 21:46:16 61° 121° (ESE) 21:50:54 436.795
ANTELSAT 18 Dec 21:41:57 21:44:10 13° 89° (E) 21:46:23 437.575/2403.000
SEEDS 18 Dec 21:42:38 21:45:09 15° 269° (W) 21:47:41 437.485
DX 1 18 Dec 21:43:44 21:47:53 44° 261° (W) 21:52:04 434.975-435.025
CUTE 1.7 + AOD 2 18 Dec 21:43:44 21:45:47 13° 270° (W) 21:47:51 437.475
HO-68 18 Dec 21:44:40 21:50:11 24° 268° (W) 21:55:44 435.675
CUBEBUG 1 18 Dec 21:49:15 21:52:55 27° 67° (ENE) 21:56:34 437.445
POLYITAN 1 18 Dec 21:58:12 21:59:14 11° 89° (E) 22:00:17 437.675
NANOSAT C BR1 18 Dec 22:01:55 22:03:27 12° 89° (E) 22:05:00 145.865
ISS 18 Dec 22:03:50 22:05:44 15° 227° (SW) 22:07:38 145.825
DELFI C3 18 Dec 22:08:35 22:11:50 23° 266° (W) 22:15:08 145.870
50 SAT 18 Dec 22:10:08 22:14:09 84° 257° (WSW) 22:18:14 437.505
Oscar 11 18 Dec 22:11:20 22:14:30 20° 267° (W) 22:17:41 145.826/435.025
QB50P1 18 Dec 22:14:53 22:17:39 17° 92° (E) 22:20:24 145.935-145.965
HUMSAT D 18 Dec 22:15:46 22:19:50 59° 259° (W) 22:23:58 437.325/437.525
CUBEBUG 2 18 Dec 22:15:50 22:19:21 26° 265° (W) 22:22:57 437.445
TIGRISAT 18 Dec 22:17:23 22:21:29 29° 95° (E) 22:25:34 435.000
UKube-1 18 Dec 22:18:17 22:21:33 21° 266° (W) 22:24:49 .
CINEMA 3 18 Dec 22:19:43 22:22:14 16° 269° (W) 22:24:46 145.822/145.860
ESTCUBE 1 18 Dec 22:23:39 22:28:09 64° 73° (ENE) 22:32:39 437.505/2401.250
CUSAT 1 18 Dec 22:24:10 22:30:09 26° 274° (W) 22:36:42 437.405
VELOX 1 18 Dec 22:29:16 22:33:30 45° 261° (W) 22:37:46 145.980
AIST 2 18 Dec 22:35:55 22:39:58 38° 48° (NE) 22:43:57 435.215
ZACube-1 18 Dec 22:35:59 22:39:15 22° 267° (W) 22:42:35 437.345
BEESAT 3 18 Dec 22:41:13 22:45:26 89° 237° (WSW) 22:49:34 437.485
POPSAT HIP 1 18 Dec 22:42:27 22:46:18 32° 97° (E) 22:50:09 437.405
UNISAT 6 18 Dec 22:45:02 22:49:40 56° 100° (E) 22:54:19 437.425
UWE-3 18 Dec 23:01:25 23:02:24 11° 272° (W) 23:03:24 435.000/436.395/437.385
RS-15 18 Dec 23:04:40 23:14:14 34° 254° (WSW) 23:24:10 29.354- 29.394
SPROUT 18 Dec 23:05:19 23:09:17 39° 70° (ENE) 23:13:17 437.525
FUNcube-1 18 Dec 23:05:36 23:06:59 11° 272° (W) 23:08:22 145.935
DANDE 18 Dec 23:07:09 23:11:10 15° 279° (W) 23:15:27 436.750
TISAT 1 18 Dec 23:08:48 23:12:49 46° 72° (ENE) 23:16:51 437.305
DUCHIFAT 1 18 Dec 23:11:17 23:15:31 67° 102° (ESE) 23:19:45 145.980
AISAT 18 Dec 23:12:59 23:15:49 17° 268° (W) 23:18:40 437.250
ANTELSAT 18 Dec 23:16:45 23:21:26 71° 286° (WNW) 23:26:08 437.575/2403.000
PCSat 18 Dec 23:18:45 23:24:12 78° 58° (ENE) 23:29:37 145.827
BEESAT 2 18 Dec 23:19:23 23:23:20 41° 242° (WSW) 23:27:14 435.950
BUGSAT 1 18 Dec 23:20:36 23:24:39 69° 102° (ESE) 23:28:42 437.445
QB50P2 18 Dec 23:23:18 23:27:36 88° 284° (WNW) 23:31:52 145.880/145.840
SO-50 18 Dec 23:23:35 23:27:13 22° 321° (NW) 23:30:57 436.795
BEESAT 18 Dec 23:25:05 23:27:29 14° 59° (ENE) 23:29:52 436.000
CUBEBUG 1 18 Dec 23:25:19 23:29:11 30° 264° (W) 23:33:04 437.445
POLYITAN 1 18 Dec 23:31:23 23:35:40 72° 285° (WNW) 23:39:56 437.675
NANOSAT C BR1 18 Dec 23:35:33 23:39:46 66° 286° (WNW) 23:43:59 145.865
YUBILEINY 18 Dec 23:37:27 23:45:40 48° 88° (E) 23:53:52 435.215
AUBIESAT-1 18 Dec 23:49:39 23:52:55 18° 56° (NE) 23:56:12 437.475
QB50P1 18 Dec 23:49:42 23:53:46 46° 288° (WNW) 23:57:51 145.935-145.965
TIGRISAT 18 Dec 23:54:03 23:58:11 32° 292° (WNW) 00:02:21 435.000
ESTCUBE 1 19 Dec 00:03:12 00:05:27 14° 270° (W) 00:07:42 437.505/2401.250
M-CUBED/EXP-1 PRIME 19 Dec 00:12:34 00:16:47 31° 61° (ENE) 00:21:04 437.505
AIST 2 19 Dec 00:14:53 00:18:25 25° 247° (WSW) 00:21:54 435.215
POPSAT HIP 1 19 Dec 00:18:38 00:22:04 24° 293° (WNW) 00:25:29 437.405
UNISAT 6 19 Dec 00:22:53 00:26:02 18° 297° (WNW) 00:29:12 437.425
ITUPSAT 1 19 Dec 00:34:09 00:38:52 58° 72° (ENE) 00:43:35 437.325
SWISSCUBE 19 Dec 00:34:29 00:39:14 64° 73° (ENE) 00:44:00 437.505
SPROUT 19 Dec 00:42:23 00:45:32 20° 267° (W) 00:48:41 437.525
O/OREOS (USA 219) 19 Dec 00:43:39 00:47:41 35° 106° (ESE) 00:51:44 437.305
TISAT 1 19 Dec 00:46:15 00:48:54 16° 268° (W) 00:51:33 437.305
DUCHIFAT 1 19 Dec 00:48:55 00:50:51 13° 299° (WNW) 00:52:48 145.980
BUGSAT 1 19 Dec 00:58:11 00:59:37 12° 299° (WNW) 01:01:02 437.445
BEESAT 19 Dec 00:59:53 01:04:41 79° 257° (WSW) 01:09:30 436.000
KKS-1 19 Dec 01:00:07 01:03:36 23° 65° (ENE) 01:07:05 437.445
STARS 19 Dec 01:01:38 01:04:23 17° 62° (ENE) 01:07:09 437.465
PCSat 19 Dec 01:03:47 01:06:55 16° 256° (WSW) 01:10:03 145.827
Oscar 19 19 Dec 01:05:25 01:09:56 29° 95° (E) 01:14:24 437.125/150
ITAMSAT 1 19 Dec 01:18:07 01:20:45 14° 89° (E) 01:23:22 435.822/435.867
AUBIESAT-1 19 Dec 01:22:33 01:27:20 68° 253° (WSW) 01:32:14 437.475
YUBILEINY 19 Dec 01:34:29 01:42:34 41° 289° (WNW) 01:50:41 435.215
M-CUBED/EXP-1 PRIME 19 Dec 01:47:12 01:51:38 37° 258° (WSW) 01:56:12 437.505
ITUPSAT 1 19 Dec 02:14:05 02:17:07 17° 269° (W) 02:20:10 437.325
SWISSCUBE 19 Dec 02:14:50 02:17:32 15° 270° (W) 02:20:14 437.505
HORYU 2 19 Dec 02:21:11 02:22:46 12° 89° (E) 02:24:21 437.375
O/OREOS (USA 219) 19 Dec 02:23:25 02:27:09 26° 304° (NW) 02:30:54 437.305
KKS-1 19 Dec 02:35:56 02:40:02 37° 262° (W) 02:44:10 437.445
STARS 19 Dec 02:36:10 02:40:27 54° 260° (W) 02:44:46 437.465
Gurwin Techsat 1B 19 Dec 02:39:25 02:44:36 50° 99° (E) 02:49:43 435.225
Oscar 19 19 Dec 02:44:33 02:49:19 38° 292° (WNW) 02:54:04 437.125/150
ITAMSAT 1 19 Dec 02:55:38 03:00:49 76° 286° (WNW) 03:05:58 435.822/435.867
MOZHAYETS 4 19 Dec 03:31:40 03:35:39 29° 67° (ENE) 03:39:40
AIST 1 19 Dec 03:44:27 03:48:43 64° 80° (E) 03:52:56
HORYU 2 19 Dec 03:55:25 03:59:57 74° 286° (WNW) 04:04:26 437.375
AO-7 19 Dec 03:56:39 04:04:30 42° 99° (E) 04:12:18 29.400- 29.500
Gurwin Techsat 1B 19 Dec 04:20:04 04:24:14 24° 297° (WNW) 04:28:23 435.225
VERMONT LUNAR 19 Dec 04:28:54 04:31:59 28° 161° (SSE) 04:35:05 437.305
SO-50 19 Dec 04:32:22 04:35:32 17° 35° (NE) 04:38:44 436.795
PHONESAT 2.4 19 Dec 04:34:05 04:37:04 24° 158° (SSE) 04:40:03 2401.200-2431.200
JAS-2 19 Dec 04:35:55 04:40:45 28° 92° (E) 04:45:14 435.910
ITAMSAT 1 19 Dec 04:37:51 04:39:25 11° 305° (NW) 04:40:59 435.822/435.867
CUBESAT XI-V 19 Dec 04:50:54 04:53:43 16° 62° (ENE) 04:56:31 437.345
PRISM 19 Dec 04:56:29 05:00:18 34° 69° (ENE) 05:04:08 437.425
MOZHAYETS 4 19 Dec 05:08:40 05:12:48 31° 264° (W) 05:16:57
AIST 1 19 Dec 05:24:28 05:25:46 11° 277° (W) 05:27:04
GONETS M04 19 Dec 05:31:38 05:40:10 56° 90° (E) 05:48:43
Cubesat XI-IV 19 Dec 05:37:26 05:41:28 22° 93° (E) 05:45:28 437.490
AO-7 19 Dec 05:49:27 05:57:21 49° 298° (WNW) 06:05:14 29.400- 29.500
STRAND 1 19 Dec 05:53:25 05:58:25 58° 71° (ENE) 06:03:26 437.568
VERMONT LUNAR 19 Dec 06:06:34 06:09:59 48° 178° (S) 06:13:25 437.305
CUTE-I 19 Dec 06:10:32 06:15:34 41° 98° (E) 06:20:34 437.470
PHONESAT 2.4 19 Dec 06:11:52 06:15:22 47° 175° (S) 06:18:53 2401.200-2431.200
SO-50 19 Dec 06:11:57 06:16:51 80° 55° (NE) 06:21:47 436.795
JAS-2 19 Dec 06:20:40 06:26:04 40° 294° (WNW) 06:31:00 435.910
CUBESAT XI-V 19 Dec 06:26:01 06:30:39 63° 259° (W) 06:35:18 437.345
PRISM 19 Dec 06:32:34 06:35:54 22° 266° (W) 06:39:14 437.425
Cubesat XI-IV 19 Dec 07:16:42 07:21:51 52° 290° (WNW) 07:26:59 437.490
HO-68 19 Dec 07:26:01 07:26:31 10° 84° (E) 07:27:01 435.675
GONETS M04 19 Dec 07:29:29 07:37:22 35° 291° (WNW) 07:45:19
STRAND 1 19 Dec 07:34:29 07:37:58 18° 268° (W) 07:41:28 437.568
VERMONT LUNAR 19 Dec 07:44:48 07:48:02 34° 195° (SSW) 07:51:16 437.305
AO-7 19 Dec 07:44:57 07:48:07 13° 321° (NW) 07:51:17 29.400- 29.500
PHONESAT 2.4 19 Dec 07:50:23 07:53:48 40° 192° (SSW) 07:57:14 2401.200-2431.200
CUTE-I 19 Dec 07:50:59 07:55:27 28° 296° (WNW) 07:59:54 437.470
SO-50 19 Dec 07:54:15 07:56:47 14° 252° (WSW) 07:59:19 436.795
BRITE-PL 19 Dec 08:25:54 08:29:54 28° 96° (E) 08:34:08 437.365/2234.400
CINEMA 3 19 Dec 08:36:03 08:37:36 11° 89° (E) 08:39:11 145.822/145.860
ANTELSAT 19 Dec 08:43:14 08:45:31 14° 60° (ENE) 08:47:50 437.575/2403.000
AAUSAT CUBESAT 2 19 Dec 08:47:00 08:50:29 24° 94° (E) 08:53:57 437.432
POLYITAN 1 19 Dec 08:53:43 08:54:55 11° 60° (ENE) 08:56:08 437.675
CANX-2 19 Dec 08:54:12 08:58:25 49° 99° (E) 09:02:36 2200.000
NANOSAT C BR1 19 Dec 08:57:01 08:58:35 12° 60° (ENE) 09:00:09 145.865
DANDE 19 Dec 08:58:32 08:59:51 12° 79° (E) 09:01:15 436.750
GOMX 1 19 Dec 09:00:34 09:05:05 44° 99° (E) 09:09:52 467.674
HO-68 19 Dec 09:08:28 09:15:35 64° 103° (ESE) 09:22:39 435.675
QB50P1 19 Dec 09:09:56 09:12:33 16° 63° (ENE) 09:15:10 145.935-145.965
UWE-3 19 Dec 09:11:16 09:13:38 14° 90° (E) 09:16:01 435.000/436.395/437.385
O/OREOS (USA 219) 19 Dec 09:14:18 09:16:06 12° 47° (NE) 09:17:54 437.305
FUNcube-1 19 Dec 09:15:07 09:16:59 12° 89° (E) 09:18:52 145.935
TIGRISAT 19 Dec 09:18:01 09:21:47 29° 67° (ENE) 09:25:38 435.000
COMPASS 1 19 Dec 09:20:37 09:24:52 64° 101° (E) 09:29:05 437.405
SEEDS 19 Dec 09:23:55 09:28:14 83° 103° (ESE) 09:32:31 437.485
VERMONT LUNAR 19 Dec 09:24:22 09:25:45 12° 211° (SSW) 09:27:08 437.305
CUTE 1.7 + AOD 2 19 Dec 09:25:11 09:29:32 83° 284° (WNW) 09:33:50 437.475
PHONESAT 2.4 19 Dec 09:29:40 09:31:58 16° 208° (SSW) 09:34:16 2401.200-2431.200
DX 1 19 Dec 09:31:02 09:34:44 27° 96° (E) 09:38:25 434.975-435.025
DOVE 4 19 Dec 09:33:23 09:38:05 70° 102° (ESE) 09:43:04 437.250
POPSAT HIP 1 19 Dec 09:37:09 09:40:49 30° 68° (ENE) 09:44:31 437.405
MaSat-1 19 Dec 09:42:37 09:44:50 39° 300° (WNW) 09:46:59 437.345
UNISAT 6 19 Dec 09:45:41 09:49:57 57° 73° (ENE) 09:54:21 437.425
YUBILEINY 19 Dec 09:45:58 09:52:52 25° 64° (ENE) 09:59:43 435.215
DELFI C3 19 Dec 09:46:59 09:50:58 45° 99° (E) 09:54:54 145.870
50 SAT 19 Dec 09:50:56 09:52:49 13° 90° (E) 09:54:41 437.505
CUSAT 1 19 Dec 09:54:29 09:58:00 69° 97° (E) 10:02:44 437.405
Oscar 11 19 Dec 09:55:56 10:00:19 68° 102° (ESE) 10:04:39 145.826/435.025
HUMSAT D 19 Dec 09:59:36 10:02:53 21° 93° (E) 10:06:10 437.325/437.525
UKube-1 19 Dec 10:03:28 10:07:45 58° 101° (ESE) 10:12:01 .
BRITE-PL 19 Dec 10:04:17 10:08:25 34° 290° (WNW) 10:12:51 437.365/2234.400
CUBEBUG 2 19 Dec 10:04:30 10:09:02 56° 100° (E) 10:13:40 437.445
DUCHIFAT 1 19 Dec 10:05:25 10:09:33 60° 73° (ENE) 10:13:42 145.980
CINEMA 3 19 Dec 10:10:36 10:15:18 82° 284° (WNW) 10:20:12 145.822/145.860
BUGSAT 1 19 Dec 10:12:15 10:16:16 57° 73° (ENE) 10:20:16 437.445
ESTCUBE 1 19 Dec 10:17:20 10:19:06 12° 89° (E) 10:20:51 437.505/2401.250
ANTELSAT 19 Dec 10:17:25 10:21:44 66° 259° (WSW) 10:26:13 437.575/2403.000
QB50P2 19 Dec 10:17:45 10:21:58 84° 76° (ENE) 10:26:13 145.880/145.840
VELOX 1 19 Dec 10:18:52 10:22:46 30° 96° (E) 10:26:38 145.980
ZACube-1 19 Dec 10:22:02 10:26:31 62° 101° (E) 10:31:03 437.345
AAUSAT CUBESAT 2 19 Dec 10:22:25 10:26:11 31° 291° (WNW) 10:29:55 437.432
POLYITAN 1 19 Dec 10:26:02 10:30:14 79° 257° (WSW) 10:34:29 437.675
NANOSAT C BR1 19 Dec 10:29:41 10:33:53 73° 258° (WSW) 10:38:06 145.865
CANX-2 19 Dec 10:31:09 10:33:58 17° 296° (WNW) 10:36:48 2200.000
DANDE 19 Dec 10:39:04 10:42:23 44° 288° (WNW) 10:46:47 436.750
GOMX 1 19 Dec 10:39:22 10:42:59 23° 294° (WNW) 10:46:46 467.674
QB50P1 19 Dec 10:43:58 10:48:03 50° 260° (W) 10:52:10 145.935-145.965
UWE-3 19 Dec 10:46:02 10:50:34 65° 286° (WNW) 10:55:10 435.000/436.395/437.385
FUNcube-1 19 Dec 10:49:17 10:53:47 71° 285° (WNW) 10:58:20 145.935
O/OREOS (USA 219) 19 Dec 10:51:41 10:56:13 87° 67° (ENE) 11:00:45 437.305
TIGRISAT 19 Dec 10:54:46 10:58:30 28° 265° (W) 11:02:19 435.000
HO-68 19 Dec 10:56:56 11:02:48 28° 302° (WNW) 11:08:38 435.675
COMPASS 1 19 Dec 10:57:58 11:00:04 14° 298° (WNW) 11:02:10 437.405
AISAT 19 Dec 11:00:47 11:05:14 85° 104° (ESE) 11:09:41 437.250
SEEDS 19 Dec 11:02:16 11:03:24 11° 300° (WNW) 11:04:31 437.485
DX 1 19 Dec 11:07:10 11:10:57 30° 293° (WNW) 11:14:43 434.975-435.025
CUBEBUG 1 19 Dec 11:12:33 11:16:41 42° 99° (E) 11:20:48 437.445
DOVE 4 19 Dec 11:12:43 11:15:23 15° 297° (WNW) 11:18:08 437.250
POPSAT HIP 1 19 Dec 11:13:15 11:16:44 25° 265° (W) 11:20:13 437.405
RS-15 19 Dec 11:17:40 11:27:26 40° 108° (ESE) 11:37:11 29.354- 29.394
DELFI C3 19 Dec 11:23:11 11:25:53 17° 296° (WNW) 11:28:35 145.870
50 SAT 19 Dec 11:24:19 11:28:24 58° 286° (WNW) 11:32:29 437.505
UNISAT 6 19 Dec 11:24:48 11:27:10 14° 270° (W) 11:29:34 437.425
Oscar 11 19 Dec 11:33:49 11:35:55 13° 299° (WNW) 11:38:01 145.826/435.025
HUMSAT D 19 Dec 11:34:48 11:38:48 38° 290° (WNW) 11:42:49 437.325/437.525
UKube-1 19 Dec 11:40:57 11:43:27 15° 298° (WNW) 11:45:57 .
CUSAT 1 19 Dec 11:41:12 11:42:14 11° 306° (NW) 11:43:19 437.405
YUBILEINY 19 Dec 11:41:56 11:50:37 76° 265° (W) 11:59:16 435.215
CUBEBUG 2 19 Dec 11:42:17 11:45:20 18° 296° (WNW) 11:48:26 437.445
DUCHIFAT 1 19 Dec 11:44:00 11:45:49 13° 270° (W) 11:47:37 145.980
BUGSAT 1 19 Dec 11:50:24 11:52:07 12° 270° (W) 11:53:51 437.445
CINEMA 3 19 Dec 11:50:43 11:51:48 11° 301° (WNW) 11:52:53 145.822/145.860
ESTCUBE 1 19 Dec 11:51:59 11:56:28 70° 286° (WNW) 12:00:55 437.505/2401.250
VELOX 1 19 Dec 11:55:31 11:59:16 28° 293° (WNW) 12:03:01 145.980
ZACube-1 19 Dec 11:59:45 12:02:25 16° 297° (WNW) 12:05:06 437.345
Oscar 19 19 Dec 12:23:31 12:28:26 48° 70° (ENE) 12:33:23 437.125/150
Gurwin Techsat 1B 19 Dec 12:25:29 12:28:01 14° 57° (ENE) 12:30:34 435.225
SPROUT 19 Dec 12:26:26 12:30:43 65° 101° (ESE) 12:34:59 437.525
TISAT 1 19 Dec 12:27:59 12:32:13 72° 102° (ESE) 12:36:26 437.305
SWISSCUBE 19 Dec 12:35:10 12:37:50 15° 90° (E) 12:40:29 437.505
ITUPSAT 1 19 Dec 12:35:20 12:37:37 13° 89° (E) 12:39:54 437.325
ITAMSAT 1 19 Dec 12:36:53 12:41:06 26° 64° (ENE) 12:45:20 435.822/435.867
BEESAT 3 19 Dec 12:39:40 12:41:20 12° 108° (ESE) 12:43:00 437.485
AISAT 19 Dec 12:39:50 12:41:12 11° 301° (WNW) 12:42:34 437.250
CUBEBUG 1 19 Dec 12:49:39 12:52:46 20° 296° (WNW) 12:55:52 437.445
BEESAT 19 Dec 12:59:33 13:03:24 24° 94° (E) 13:07:14 436.000
AO-7 19 Dec 13:09:03 13:13:48 17° 44° (NE) 13:18:34 29.400- 29.500
ISS 19 Dec 13:10:33 13:11:26 11° 130° (SE) 13:12:19 145.825
BEESAT 2 19 Dec 13:16:08 13:19:35 26° 114° (ESE) 13:23:06 435.950
HORYU 2 19 Dec 13:21:08 13:23:31 14° 61° (ENE) 13:25:55 437.375
RS-15 19 Dec 13:28:22 13:39:11 65° 311° (NW) 13:50:10 29.354- 29.394
M-CUBED/EXP-1 PRIME 19 Dec 13:30:14 13:33:06 17° 95° (E) 13:35:49 437.505
YUBILEINY 19 Dec 13:41:28 13:45:50 15° 286° (WNW) 13:50:12 435.215
PCSat 19 Dec 14:01:42 14:06:57 54° 115° (ESE) 14:12:14 145.827
Gurwin Techsat 1B 19 Dec 14:01:53 14:07:12 88° 75° (ENE) 14:12:33 435.225
Oscar 19 19 Dec 14:04:03 14:08:01 22° 267° (W) 14:12:01 437.125/150
SPROUT 19 Dec 14:04:09 14:06:18 14° 298° (WNW) 14:08:27 437.525
TISAT 1 19 Dec 14:05:49 14:07:29 12° 299° (WNW) 14:09:08 437.305
ITUPSAT 1 19 Dec 14:11:15 14:16:01 70° 287° (WNW) 14:20:44 437.325
SWISSCUBE 19 Dec 14:11:24 14:16:08 63° 287° (WNW) 14:20:49 437.505
AIST 2 19 Dec 14:13:44 14:17:49 49° 119° (ESE) 14:21:58 435.215
BEESAT 3 19 Dec 14:14:50 14:18:56 71° 306° (NW) 14:23:06 437.485
ITAMSAT 1 19 Dec 14:15:26 14:20:22 43° 261° (W) 14:25:18 435.822/435.867
STARS 19 Dec 14:25:14 14:28:54 25° 95° (E) 14:32:34 437.465
KKS-1 19 Dec 14:25:35 14:29:44 37° 98° (E) 14:33:53 437.445
